Hourly Data Report for October 06, 2017

All times are specified in Local Standard Time (LST). Add 1 hour to adjust for Daylight Saving Time where and when it is observed.

WESTERN HEAD
NOVA SCOTIA

43°59'24.070" N
64°39'51.008" W
10.10 m
8206240
71411
WWE

Download Data

Hourly Data (October 2017)
Hourly Data Report for October 6, 2017
Temp Definition
°C
Dew Point Temp Definition
°C
Rel Hum Definition
%
Wind Dir Definition
10's deg

Wind Spd Definition
km/h
Visibility Definition
km
Stn Press Definition
kPa
Hmdx Definition


Wind Chill Definition


Weather Definition


TIME
00:00 13.0 12.2 95 24 14   101.39     LegendNANA
01:00 12.6 12.4 98 24 13   101.40     LegendNANA
02:00 13.1 12.8 98 23 13   101.35     LegendNANA
03:00 13.3 13.1 99 24 19   101.34     LegendNANA
04:00 13.1 13.1 100 26 9   101.39     LegendNANA
05:00 13.1 13.1 100 25 8   101.40     LegendNANA
06:00 12.3 12.3 100 26 11   101.45     LegendNANA
07:00 11.8 11.8 100 25 10   101.50     LegendNANA
08:00 13.6 13.6 100 30 10   101.54     LegendNANA
09:00 17.3 12.2 72 30 10   101.57     LegendNANA
10:00 18.9 10.8 59 31 19   101.57     LegendNANA
11:00 20.3 10.8 55 28 13   101.58     LegendNANA
12:00 20.3 11.9 58 24 9   101.56     LegendNANA
13:00 19.5 14.9 75 19 17   101.55     LegendNANA
14:00 17.7 14.7 83 20 17   101.59     LegendNANA
15:00 15.7 14.0 89 26 9   101.58     LegendNANA
16:00 15.1 12.8 87 29 12   101.61     LegendNANA
17:00 14.8 13.1 90 28 6   101.62     LegendNANA
18:00 14.6 12.5 87 24 12   101.60     LegendNANA
19:00 13.1 11.8 92 28 7   101.67     LegendNANA
20:00 13.8 12.6 92 23 10   101.70     LegendNANA
21:00 11.1 10.2 94 25 6   101.75     LegendNANA
22:00 10.0 9.4 96 25 8   101.82     LegendNANA
23:00 11.2 10.8 98 27 8   101.88     LegendNANA

Notes on Data Quality.

Legend

  • E = Estimated
  • M = Missing
  • NA = Not Available
  • ‡ = Partner data that is not subject to review by the National Climate Archives
Date modified: